ISS OBJECT YE

Last updated on Thu Mar 19 2026 00:02:09 GMT+0000 (Coordinated Universal Time)

1 67688U 98067YE 26077.15016866 .00039840 00000+0 62263-3 0 9995 2 67688 51.6321 29.6558 0008334 182.6297 177.4651 15.53349847 6021
UTC large
Height (km)
Speed (km/s)
/
Latitude / Longitude
Inclination (degrees)
Orbital Period (minutes)
Azimuth
Elevation
Range (km)
Doppler Factor

Next 0 passes for location: London (51.5072 / 0.1276)

No passes found over London.
ISS OBJECT YE